{"data":{"norad_id":60939,"epoch":"2026-09-21T09:35:37.411584Z","epoch_age_seconds":110667,"freshness":"FRESH","line1":"1 60939U 24155R   26264.39973856  .00000442  00000+0  24225-4 0  9992","line2":"2 60939  53.1604 297.1624 0001338  87.1881 272.9275 15.34390037116307","mean_motion":15.34390037,"eccentricity":0.0001338,"inclination_deg":53.1604,"raan_deg":297.1624,"arg_perigee_deg":87.1881,"mean_anomaly_deg":272.9275,"bstar":2.4225e-5,"rev_number":11630,"period_min":93.848367447396,"perigee_km":461.81754411668,"apogee_km":463.64816088921,"semimajor_km":6840.8698525029,"source":"CELESTRAK","updated_at":"2026-09-22T09:00:49.292518Z"}}